Preview of NWS' New Version of Forecast
This preview is not operational and should not be used for support decisions.

Regional Weather Roundup (RWR)

Issued by National Weather Service (NWS)

                            
000
ASUS46 KSEW 160810
RWRWA 

WASHINGTON REGIONAL WEATHER ROUNDUP
NATIONAL WEATHER SERVICE SEATTLE WA
100 AM PDT TUE OCT 16 2018

NOTE:"FAIR" INDICATES FEW OR NO CLOUDS BELOW 12,000 FEET WITH NO 
SIGNIFICANT WEATHER AND/OR OBSTRUCTIONS TO VISIBILITY.

WAZ507-509-555>559-160900-
SEATTLE, TACOMA, EVERETT, AND VICINITY
  
CITY           SKY/WX    TMP DP  RH WIND       PRES   REMARKS
EVERETT        CLEAR     48  45  89 N3        30.33S                  
BOEING FIELD   CLEAR     49  43  80 CALM      30.32S                  
RENTON         CLEAR     47  42  83 CALM      30.31S                  
SEATAC AIRPORT CLEAR     51  43  74 N6        30.31S                  
JBLM-MCCHORD   NOT AVBL                                               
PUYALLUP       DRIZZLE   41  41 100 CALM      30.31S                  
BREMERTON      CLEAR     54  40  59 NE8       30.31S                  
JBLM-FT LEWIS  NOT AVBL                                               
TACOMA NARROWS CLEAR     48  42  80 CALM      30.31S                  
$$
 
WAZ001-503-506-510-514-515-160900-
NORTH INTERIOR
  
CITY           SKY/WX    TMP DP  RH WIND       PRES   REMARKS
BELLINGHAM     PTCLDY    41  38  89 CALM      30.33S FOG              
FRIDAY HARBOR  CLEAR     49  40  71 CALM      30.34S                  
EASTSOUND      CLEAR     45  45 100 CALM      30.33S                  
PORT ANGELES   CLEAR     40  37  89 SW5       30.35R                  
EDIZ HOOK      FAIR      47  42  83 CALM      30.34S                  
PORT TOWNSEND  FAIR      37  37 100 CALM      30.33S FOG              
NAS WHIDBEY    CLEAR     46  42  86 CALM      30.38R                  
ARLINGTON      CLEAR     41  40  96 N5        30.33S                  
BURLINGTON     CLEAR     45  45 100 NW5       30.34R                  
$$
 
WAZ020-022-039-040-504-511-512-160900-
SOUTHWEST INTERIOR
  
CITY           SKY/WX    TMP DP  RH WIND       PRES   REMARKS
SHELTON        CLEAR     40  36  86 CALM      30.30R                  
OLYMPIA        CLEAR     41  38  89 CALM      30.31S                  
CHEHALIS       FAIR      43  43 100 CALM      30.30S                  
KELSO          CLEAR     44  42  93 CALM      30.28S                  
VANCOUVER      CLEAR     45  41  86 CALM      30.25S                  
SCAPPOOSE, OR  CLEAR     44  39  82 CALM      30.25S                  
PORTLAND, OR   CLEAR     51  45  79 NW5       30.26S                  
$$
 
WAZ021-516-517-160900-
WASHINGTON COAST
  
CITY           SKY/WX    TMP DP  RH WIND       PRES   REMARKS
FORKS          CLEAR     42  39  89 CALM      30.27S                  
HOQUIAM        CLEAR     54  41  61 NE9       30.26S                  
ASTORIA, OR    CLEAR     53  47  79 E9        30.21S                  
$$
 
WAZ019-023-024-040-567>569-160900-
CASCADE MOUNTAINS AND COLUMBIA GORGE
  
CITY           SKY/WX    TMP DP  RH WIND       PRES   REMARKS
STAMPEDE PASS  CLEAR     44  29  55 VRB3      30.40F                  
TROUTDALE, OR  CLEAR     62  31  31 E22G31    30.25S                  
HOOD RIVER, OR SUNNY     37  34  87 CALM      30.39S                  
THE DALLES, OR CLEAR     42  30  62 CALM      30.39S                  
$$

WAZ026-027-041>044-520-521-160900-
EAST SLOPES
  
CITY           SKY/WX    TMP DP  RH WIND       PRES   REMARKS
OMAK           CLEAR     39  32  76 NW6       30.42S                  
WENATCHEE      CLEAR     42  33  70 CALM      30.41R                  
ELLENSBURG     CLEAR     36  28  73 NE3       30.39S                  
YAKIMA         CLEAR     36  30  79 W7        30.40R                  
SUNNYSIDE ARPT SUNNY     34  32  93 CALM      30.40S                  
$$

WAZ028-034-035-160900-
COLUMBIA BASIN
  
CITY           SKY/WX    TMP DP  RH WIND       PRES   REMARKS
EPHRATA        CLEAR     39  29  67 N7        30.40R                  
MOSES LAKE     CLEAR     34  26  72 N6        30.41R                  
PASCO          CLEAR     35  32  88 N3        30.41R                  
RICHLAND ARPT  SUNNY     38  35  90 CALM      30.41S                  
HERMISTON, OR  CLEAR     40  33  76 SE6       30.38S                  
$$

WAZ036>038-160900-
NORTHEAST WASHINGTON
  
CITY           SKY/WX    TMP DP  RH WIND       PRES   REMARKS
SPOKANE GEIGER CLEAR     40  22  48 S6        30.40S                  
SPOKANE FELTS  CLEAR     37  31  78 NE5       30.42R                  
FAIRCHILD AFB  NOT AVBL                                               
COEURDALENE,ID CLEAR     32  28  85 NE3       30.42R                  
DEER PARK      CLEAR     27  23  85 CALM      30.41R                  
$$

WAZ029>033-160900-
SOUTHEAST WASHINGTON
  
CITY           SKY/WX    TMP DP  RH WIND       PRES   REMARKS
PULLMAN        CLEAR     33  20  58 CALM      30.42S                  
LEWISTON, ID   CLEAR     43  24  47 CALM      30.42R                  
WALLA WALLA    CLEAR     44  32  62 E6        30.39R                  
PENDLETON, OR  CLEAR     41  31  67 SE6       30.38R                  
$$